| time (UTC) | temp C | wind direction | speed KPH | gust KPH | rain 1hr cm | rain 24hr cm | rain mn cm | humidity % | barometer mb |
| 20260506045041 | 25 | 239 | 0.0 | 6.4 | 0.00 | 0.00 | 0.00 | 1 | 969.6 |
| 20260506041732 | 25 | 226 | 0.0 | 0.0 | 0.00 | 0.00 | 0.00 | 1 | 969.5 |
| 20260506040755 | 25 | 226 | 0.0 | 4.8 | 0.00 | 0.00 | 0.00 | 1 | 969.5 |
| 20260506035757 | 25 | 225 | 0.0 | 0.0 | 0.00 | 0.00 | 0.00 | 1 | 969.3 |
| 20260506034730 | 25 | 225 | 0.0 | 1.6 | 0.00 | 0.00 | 0.00 | 1 | 969.3 |
| 20260506033709 | 25 | 225 | 0.0 | 1.6 | 0.00 | 0.00 | 0.00 | 1 | 969.1 |
| 20260506032654 | 24 | 225 | 0.0 | 0.0 | 0.00 | 0.00 | 0.00 | 1 | 969.0 |
| 20260506030453 | 24 | 225 | 0.0 | 0.0 | 0.00 | 0.00 | 0.00 | 1 | 968.9 |
| 20260506023217 | 25 | 225 | 0.0 | 0.0 | 0.00 | 0.00 | 0.00 | 1 | 968.4 |
| 20260506022233 | 25 | 225 | 0.0 | 0.0 | 0.00 | 0.00 | 0.00 | 1 | 968.1 |
| 20260506021223 | 25 | 225 | 0.0 | 0.0 | 0.00 | 0.00 | 0.00 | 1 | 968.0 |
| 20260506020232 | 25 | 225 | 0.0 | 0.0 | 0.00 | 0.00 | 0.00 | 5 | 967.9 |
| 20260506015244 | 25 | 225 | 0.0 | 0.0 | 0.00 | 0.00 | 0.00 | 10 | 967.7 |
| 20260506014213 | 25 | 229 | 0.0 | 0.0 | 0.00 | 0.00 | 0.00 | 19 | 967.5 |
| 20260506013158 | 25 | 229 | 0.0 | 0.0 | 0.00 | 0.00 | 0.00 | 30 | 967.6 |
| 20260506012137 | 25 | 229 | 0.0 | 0.0 | 0.00 | 0.00 | 0.00 | 38 | 967.7 |
| 20260506011157 | 25 | 229 | 0.0 | 0.0 | 0.00 | 0.00 | 0.00 | 45 | 967.5 |
| 20260506010143 | 26 | 229 | 0.0 | 0.0 | 0.00 | 0.00 | 0.00 | 50 | 967.4 |
| 20260506005152 | 26 | 229 | 0.0 | 0.0 | 0.00 | 0.00 | 0.00 | 53 | 967.5 |
| 20260506004153 | 26 | 228 | 0.0 | 0.0 | 0.00 | 0.00 | 0.00 | 54 | 967.5 |
| 20260506003132 | 26 | 228 | 0.0 | 0.0 | 0.00 | 0.00 | 0.00 | 56 | 967.5 |
| 20260506002118 | 26 | 227 | 0.0 | 4.8 | 0.00 | 0.00 | 0.00 | 58 | 967.5 |
| 20260506001107 | 26 | 229 | 0.0 | 0.0 | 0.00 | 0.00 | 0.00 | 59 | 967.6 |
| 20260506000108 | 26 | 231 | 0.0 | 1.6 | 0.00 | 0.00 | 0.00 | 61 | 967.5 |
| 20260505235133 | 26 | 229 | 0.0 | 8.0 | 0.00 | 0.00 | 0.00 | 61 | 967.5 |
| 20260505234105 | 27 | 279 | 0.0 | 1.6 | 0.00 | 0.00 | 0.00 | 61 | 967.3 |
| 20260505233104 | 27 | 281 | 0.0 | 1.6 | 0.00 | 0.00 | 0.00 | 61 | 967.2 |
| 20260505232032 | 27 | 248 | 0.0 | 3.2 | 0.00 | 0.00 | 0.00 | 62 | 967.2 |
| 20260505231049 | 27 | 236 | 0.0 | 6.4 | 0.00 | 0.00 | 0.00 | 62 | 967.1 |
| 20260505230051 | 27 | 244 | 0.0 | 6.4 | 0.00 | 0.00 | 0.00 | 62 | 967.1 |
| 20260505225058 | 27 | 234 | 0.0 | 6.4 | 0.00 | 0.00 | 0.00 | 62 | 967.1 |
| 20260505224034 | 28 | 265 | 0.0 | 6.4 | 0.00 | 0.00 | 0.00 | 62 | 967.1 |
| 20260505223042 | 28 | 261 | 0.0 | 6.4 | 0.00 | 0.00 | 0.00 | 62 | 967.0 |
| 20260505222048 | 28 | 234 | 0.0 | 6.4 | 0.00 | 0.00 | 0.00 | 61 | 966.9 |
| 20260505221040 | 28 | 256 | 0.0 | 3.2 | 0.00 | 0.00 | 0.00 | 61 | 967.0 |
| 20260505220020 | 28 | 246 | 0.0 | 6.4 | 0.00 | 0.00 | 0.00 | 61 | 967.1 |
| 20260505214954 | 29 | 252 | 0.0 | 4.8 | 0.00 | 0.00 | 0.00 | 61 | 967.1 |
| 20260505212852 | 30 | 104 | 0.0 | 6.4 | 0.00 | 0.00 | 0.00 | 60 | 967.5 |
| 20260505211832 | 30 | 104 | 0.0 | 6.4 | 0.00 | 0.00 | 0.00 | 60 | 967.4 |
| 20260505210818 | 30 | 254 | 0.0 | 9.7 | 0.00 | 0.00 | 0.00 | 60 | 967.6 |
| 20260505204725 | 30 | 232 | 0.0 | 11.3 | 0.00 | 0.00 | 0.00 | 60 | 967.7 |
| 20260505203723 | 30 | 209 | 0.0 | 11.3 | 0.00 | 0.00 | 0.00 | 60 | 967.7 |
| 20260505201624 | 30 | 304 | 0.0 | 4.8 | 0.00 | 0.00 | 0.00 | 60 | 968.1 |
| 20260505200626 | 30 | 263 | 0.0 | 6.4 | 0.00 | 0.00 | 0.00 | 59 | 968.4 |
| 20260505195605 | 29 | 259 | 0.0 | 6.4 | 0.00 | 0.00 | 0.00 | 59 | 968.5 |
| 20260505194534 | 28 | 297 | 0.0 | 9.7 | 0.00 | 0.00 | 0.00 | 60 | 968.6 |
| 20260505192426 | 27 | 193 | 0.0 | 8.0 | 0.00 | 0.00 | 0.00 | 60 | 968.9 |
| 20260505191407 | 27 | 220 | 0.0 | 6.4 | 0.00 | 0.00 | 0.00 | 60 | 968.9 |
| 20260505190410 | 27 | 234 | 0.0 | 4.8 | 0.00 | 0.00 | 0.00 | 60 | 968.9 |
| 20260505184243 | 27 | 273 | 0.0 | 9.7 | 0.00 | 0.00 | 0.00 | 59 | 969.3 |
| 20260505183213 | 26 | 255 | 0.0 | 4.8 | 0.00 | 0.00 | 0.00 | 57 | 969.4 |
| 20260505182214 | 26 | 271 | 0.0 | 8.0 | 0.00 | 0.00 | 0.00 | 53 | 969.5 |
| 20260505181224 | 25 | 268 | 0.0 | 8.0 | 0.00 | 0.00 | 0.00 | 51 | 969.6 |
| 20260505180232 | 25 | 252 | 0.0 | 9.7 | 0.00 | 0.00 | 0.00 | 47 | 969.7 |
| 20260505175242 | 25 | 265 | 0.0 | 8.0 | 0.00 | 0.00 | 0.00 | 44 | 969.9 |
| 20260505173145 | 25 | 194 | 0.0 | 0.0 | 0.00 | 0.00 | 0.00 | 30 | 970.0 |
| 20260505172137 | 24 | 255 | 0.0 | 1.6 | 0.00 | 0.00 | 0.00 | 20 | 970.0 |
| 20260505171155 | 24 | 296 | 0.0 | 3.2 | 0.00 | 0.00 | 0.00 | 16 | 970.1 |
| 20260505164959 | 23 | 231 | 0.0 | 8.0 | 0.00 | 0.00 | 0.00 | 1 | 970.1 |
| 20260505163939 | 23 | 266 | 0.0 | 4.8 | 0.00 | 0.00 | 0.00 | 1 | 970.2 |
| 20260505162933 | 23 | 209 | 0.0 | 3.2 | 0.00 | 0.00 | 0.00 | 1 | 970.1 |
| 20260505161925 | 23 | 257 | 0.0 | 1.6 | 0.00 | 0.00 | 0.00 | 1 | 970.0 |
| 20260505160934 | 23 | 239 | 0.0 | 6.4 | 0.00 | 0.00 | 0.00 | 1 | 970.2 |
| 20260505153010 | 22 | 234 | 0.0 | 4.8 | 0.00 | 0.00 | 0.00 | 1 | 970.1 |
| 20260505152016 | 22 | 267 | 0.0 | 3.2 | 0.00 | 0.00 | 0.00 | 1 | 970.2 |
| 20260505151019 | 22 | 272 | 0.0 | 6.4 | 0.00 | 0.00 | 0.00 | 1 | 970.1 |
| 20260505124834 | 21 | 267 | 0.0 | 0.0 | 0.00 | 0.00 | 0.00 | 1 | 969.0 |
| 20260505123844 | 21 | 277 | 0.0 | 8.0 | 0.00 | 0.00 | 0.00 | 1 | 968.8 |
| 20260505122908 | 21 | 265 | 0.0 | 6.4 | 0.00 | 0.00 | 0.00 | 1 | 968.7 |
| 20260505121928 | 21 | 290 | 0.0 | 6.4 | 0.00 | 0.00 | 0.00 | 1 | 968.6 |
| 20260505120929 | 21 | 223 | 0.0 | 6.4 | 0.00 | 0.00 | 0.00 | 1 | 968.4 |
| 20260505115927 | 21 | 220 | 0.0 | 6.4 | 0.00 | 0.00 | 0.00 | 1 | 968.4 |
| 20260505114852 | 21 | 229 | 0.0 | 1.6 | 0.00 | 0.00 | 0.00 | 1 | 968.1 |
| 20260505113910 | 21 | 215 | 0.0 | 12.9 | 0.00 | 0.00 | 0.00 | 1 | 968.1 |
| 20260505112931 | 21 | 221 | 0.0 | 6.4 | 0.00 | 0.00 | 0.00 | 1 | 968.2 |
| 20260505111948 | 21 | 267 | 0.0 | 12.9 | 0.00 | 0.00 | 0.00 | 1 | 968.3 |
| 20260505110933 | 21 | 208 | 0.0 | 9.7 | 0.00 | 0.00 | 0.00 | 1 | 968.0 |
| 20260505101654 | 21 | 225 | 0.0 | 8.0 | 0.00 | 0.00 | 0.00 | 1 | 968.4 |
| 20260505100624 | 21 | 259 | 0.0 | 3.2 | 0.00 | 0.00 | 0.00 | 1 | 968.6 |
| 20260505095602 | 21 | 261 | 0.0 | 0.0 | 0.00 | 0.00 | 0.00 | 1 | 968.5 |
| 20260505093437 | 21 | 275 | 0.0 | 8.0 | 0.00 | 0.00 | 0.00 | 1 | 968.5 |
| 20260505092449 | 21 | 263 | 0.0 | 8.0 | 0.00 | 0.00 | 0.00 | 1 | 968.7 |
| 20260505091449 | 21 | 238 | 0.0 | 6.4 | 0.00 | 0.00 | 0.00 | 1 | 968.6 |
| 20260505090425 | 21 | 252 | 0.0 | 4.8 | 0.00 | 0.00 | 0.00 | 1 | 968.8 |
| 20260505084321 | 21 | 146 | 0.0 | 8.0 | 0.00 | 0.00 | 0.00 | 1 | 968.9 |
| 20260505083306 | 21 | 248 | 0.0 | 6.4 | 0.00 | 0.00 | 0.00 | 1 | 969.1 |
| 20260505082304 | 21 | 168 | 0.0 | 8.0 | 0.00 | 0.00 | 0.00 | 1 | 969.1 |
| 20260505081244 | 21 | 281 | 0.0 | 0.0 | 0.00 | 0.00 | 0.00 | 1 | 969.1 |
| 20260505080234 | 21 | 182 | 0.0 | 12.9 | 0.00 | 0.00 | 0.00 | 1 | 969.2 |
| 20260505075232 | 21 | 254 | 0.0 | 12.9 | 0.00 | 0.00 | 0.00 | 1 | 969.3 |
| 20260505074235 | 21 | 263 | 0.0 | 9.7 | 0.00 | 0.00 | 0.00 | 1 | 969.5 |
| 20260505073237 | 21 | 248 | 0.0 | 9.7 | 0.00 | 0.00 | 0.00 | 1 | 969.6 |
| 20260505071122 | 21 | 197 | 0.0 | 8.0 | 0.00 | 0.00 | 0.00 | 1 | 969.9 |
| 20260505070138 | 21 | 263 | 0.0 | 3.2 | 0.00 | 0.00 | 0.00 | 1 | 970.1 |
| 20260505065134 | 21 | 294 | 0.0 | 8.0 | 0.00 | 0.00 | 0.00 | 1 | 970.1 |
| 20260505064138 | 21 | 267 | 0.0 | 4.8 | 0.00 | 0.00 | 0.00 | 1 | 970.2 |
| 20260505063116 | 21 | 243 | 0.0 | 3.2 | 0.00 | 0.00 | 0.00 | 1 | 970.2 |
| 20260505062053 | 21 | 264 | 0.0 | 9.7 | 0.00 | 0.00 | 0.00 | 1 | 970.4 |
| 20260505061108 | 21 | 275 | 0.0 | 9.7 | 0.00 | 0.00 | 0.00 | 1 | 970.5 |
| 20260505060114 | 21 | 253 | 0.0 | 9.7 | 0.00 | 0.00 | 0.00 | 1 | 970.5 |
| 20260505055051 | 21 | 234 | 0.0 | 9.7 | 0.00 | 0.00 | 0.00 | 1 | 970.5 |
| 20260505054039 | 21 | 240 | 0.0 | 8.0 | 0.00 | 0.00 | 0.00 | 1 | 970.4 |
| 20260505053059 | 21 | 225 | 0.0 | 6.4 | 0.00 | 0.00 | 0.00 | 1 | 970.4 |